Pardubice, Czech Republic

11:13 AM CEST on May 25, 2017 (GMT +0200)
Pardubice

Weather History for LKPD - September, 2012

Change the Weather History Date:

Saturday, September 29, 2012

  Actual Average Record
Temperature  
Mean Temperature 52 °F -  
Max Temperature 62 °F - - ()
Min Temperature 41 °F - - ()
Degree Days  
Heating Degree Days 14    
Growing Degree Days 2 (Base 50)    
Moisture  
Dew Point 49 °F    
Average Humidity 87    
Maximum Humidity 100    
Minimum Humidity 68    
Precipitation  
Precipitation 0.00 in - - ()
Sea Level Pressure  
Sea Level Pressure 30.04 in    
Wind  
Wind Speed 1 mph ()    
Max Wind Speed 6 mph    
Max Gust Speed -    
Visibility 4.6 miles    
Events Fog , Rain    
T = Trace of Precipitation, MM = Missing Value Source: Averaged Metar Reports

Daily Weather History Graph

Daily Weather History Graph

Search for Another Location

Airport or City:

Trip Planner

Search our weather history database for the weather conditions in past years. The results will help you decide how hot, cold, wet, or windy it might be!

Date:

Astronomy

Sep. 29, 2012 Rise Set
Actual Time 6:54 AM CEST 6:39 PM CEST
Civil Twilight 6:22 AM CEST 7:11 PM CEST
Nautical Twilight 5:44 AM CEST 7:48 PM CEST
Astronomical Twilight 5:05 AM CEST 8:27 PM CEST
Moon 5:59 PM CEST (9/29) 6:08 AM CEST (9/29)
Length of Visible Light 12h 49m
Length of Day
11h 44m
Waxing Gibbous, 99% of the Moon is Illuminated
Sep 29
Waxing Gibbous
Sep 30
Full
Oct 8
Last Quarter
Oct 15
New
Oct 22
First Quarter

Hourly Weather History & Observations

Time (CEST) Temp. Dew Point Humidity Pressure Visibility Wind Dir Wind Speed Gust Speed Precip Events Conditions
12:00 AM 51.8 °F 48.2 °F 88% 30.09 in - East 3.5 mph - N/A   Clear
1:00 AM 50.0 °F 48.2 °F 94% 30.09 in - NE 1.2 mph - N/A   Clear
2:00 AM 50.0 °F 48.2 °F 94% 30.09 in - Calm Calm - N/A   Clear
3:00 AM 46.4 °F 46.4 °F 100% 30.09 in - Calm Calm - N/A   Clear
4:00 AM 44.6 °F 42.8 °F 93% 30.09 in 6.2 mi Calm Calm - N/A Fog Shallow Fog
5:00 AM 42.8 °F 42.8 °F 100% 30.06 in 0.3 mi West 1.2 mph - N/A Fog Fog
6:00 AM 42.8 °F 42.8 °F 100% 30.06 in 0.5 mi Calm Calm - N/A Fog Fog
7:00 AM 41.0 °F 41.0 °F 100% 30.06 in 6.2 mi Calm Calm - N/A Fog Shallow Fog
8:00 AM 42.8 °F 42.8 °F 100% 30.06 in 3.1 mi Calm Calm - N/A   Mist
9:00 AM 50.0 °F 46.4 °F 87% 30.06 in - Calm Calm - N/A   Clear
10:00 AM 55.4 °F 50.0 °F 82% 30.06 in - Calm Calm - N/A   Clear
11:00 AM 57.2 °F 48.2 °F 72% 30.06 in - Variable 1.2 mph - N/A   Clear
12:00 PM 59.0 °F 50.0 °F 72% 30.04 in - Variable 1.2 mph - N/A   Clear
1:00 PM 62.6 °F 51.8 °F 68% 30.04 in - Variable 2.3 mph - N/A   Clear
2:00 PM 60.8 °F 51.8 °F 72% 30.01 in - NW 3.5 mph - N/A   Clear
3:00 PM 62.6 °F 51.8 °F 68% 29.98 in - Variable 2.3 mph - N/A   Clear
4:00 PM 62.6 °F 53.6 °F 72% 29.98 in - NW 3.5 mph - N/A   Clear
5:00 PM 60.8 °F 53.6 °F 77% 29.98 in 6.2 mi NW 3.5 mph - N/A Rain Light Rain
6:00 PM 60.8 °F 53.6 °F 77% 29.98 in 6.2 mi WNW 4.6 mph - N/A Rain Light Rain
7:00 PM 57.2 °F 55.4 °F 94% 30.01 in 3.7 mi West 5.8 mph - N/A Rain Light Rain
8:00 PM 55.4 °F 53.6 °F 94% 30.04 in 6.2 mi West 4.6 mph - N/A Rain Light Rain
9:00 PM 53.6 °F 53.6 °F 100% 30.04 in 6.2 mi East 1.2 mph - N/A Rain Light Rain
10:00 PM 55.4 °F 55.4 °F 100% 30.04 in 6.2 mi Variable 1.2 mph - N/A Rain Light Rain
11:00 PM 55.4 °F 53.6 °F 94% 30.06 in - Variable 1.2 mph - N/A   Clear